Miscellaneous Local Product
Issued by NWS North Platte, NE

Home | Current Version | Previous Version | Graphics & Text | Print | Product List | Glossary On
Versions: 1 2 3 4 5 6 7 8 9 10 11 12 13 14 15 16 17 18 19 20 21 22 23 24 25 26 27 28 29 30 31 32 33 34 35 36 37 38 39 40 41 42 43 44 45 46 47 48 49 50
150
AXUS43 KLBF 141710
MISLBF


WESTERN AND NORTH CENTRAL NEBRASKA HOURLY WEATHER ROUNDUP
NATIONAL WEATHER SERVICE NORTH PLATTE NE
1100 AM CST SUN JAN 14 2018

NOTE: "FAIR" INDICATES FEW OR NO CLOUDS BELOW 12,000 FEET WITH NO
SIGNIFICANT WEATHER AND/OR OBSTRUCTIONS TO VISIBILITY.

NOTE: STATIONS NOT REPORTING VARIABLES SUCH AS SKY/WEATHER OR
PRESSURE ARE PROVIDED BY RAWS AND APRS NETWORKS AND ARE NOT UNDER
NATIONAL WEATHER SERVICE QUALITY CONTROL.

...OBSERVATIONS IN AND NEAR THE EASTERN PANHANDLE OF NEBRASKA...

CITY           SKY/WX    TMP DP  RH WIND       PRES   REMARKS
PINE RIDGE     CLOUDY    36  30  79 W9        30.21S WCI  29
GORDON         CLOUDY    37  30  75 W15G22    30.18F WCI  28
CHADRON        CLOUDY    36  28  73 W8        30.24R WCI  30
ALLIANCE       CLOUDY    35  30  82 W15       30.22F WCI  25
SIDNEY         MOSUNNY   40  29  64 W14       30.27F WCI  32
CRESCENT LAKE    N/A     38  31  76 W12         N/A  WCI  30
$$

...OBSERVATIONS IN NORTHERN NEBRASKA AND FAR SOUTHERN SOUTH DAKOTA...

CITY           SKY/WX    TMP DP  RH WIND       PRES   REMARKS
WINNER         CLOUDY    37  29  72 W12       30.13S WCI  29
VALENTINE      CLOUDY    38  30  73 W15       30.16R WCI  29
AINSWORTH      CLOUDY    34  31  88 W9        30.15S WCI  26
O`NEILL        CLOUDY    28  24  87 S7        30.15F WCI  20
THEDFORD       CLOUDY    37  31  77 W10G18    30.20S WCI  30
BROKEN BOW     CLOUDY    30  25  81 VRB3      30.20F
ORD            PTSUNNY   24  18  77 E3        30.20F
ALBION         CLOUDY    24  20  83 SW9       30.22F WCI  15
VALENTINE NWR    N/A     33  30  89 W8          N/A  WCI  26
HALSEY           N/A     34  29  82 W7          N/A  WCI  28
BUTTE            N/A     23  20  89 SW6         N/A  WCI  16
CHAMBERS         N/A     32  24  71 S5          N/A  WCI  27
EWING            N/A     27  24  88 SW9         N/A  WCI  18
$$

...OBSERVATIONS IN SOUTHWEST NEBRASKA AND FAR NORTHEAST COLORADO...

CITY           SKY/WX    TMP DP  RH WIND       PRES   REMARKS
WRAY           FAIR      41  32  70 W12       30.31S
HOLYOKE        FAIR      43  32  65 W13       30.29S
IMPERIAL       MOSUNNY   37  30  75 W12       30.28S WCI  29
OGALLALA       MOSUNNY   36  31  82 W9        30.26S WCI  29
NORTH PLATTE   CLOUDY    34  29  82 W10       30.25S WCI  26
MCCOOK         CLOUDY    34  30  85 W9        30.29F WCI  27
LEXINGTON      CLOUDY    27  24  88 W5        30.25F WCI  22
STAPLETON        N/A     34  30  85 NW3         N/A
GOTHENBURG       N/A     33  28  81 W3          N/A
CALLAWAY         N/A     33  30  90 W7          N/A  WCI  27
$$

...OBSERVATIONS IN CENTRAL LINCOLN COUNTY AREA...

CITY           SKY/WX    TMP DP  RH WIND       PRES   REMARKS
N.P. AIRPORT   CLOUDY    34  29  82 W10       30.25S WCI  26
N.P. DOWNTOWN    N/A     34  30  85 W3          N/A
N.P. SOUTHEAST   N/A     34  30  85 W5G12       N/A  WCI  30
N.P. HILLCREST   N/A     31  28  89 W6          N/A  WCI  25
$$

...SOME OBSERVATIONS FROM AROUND THE REGION...

CITY           SKY/WX    TMP DP  RH WIND       PRES   REMARKS
DENVER         MOSUNNY   42  28  57 S8        30.28F
BERTHOUD PASS  FAIR      12   0  57 NW38G44   30.35R WCI -11
GRAND JUNCTION SUNNY     33  26  75 S6        30.49R WCI  28
LARAMIE        SUNNY     31  22  69 SE5       30.28F WCI  26
CHEYENNE       SUNNY     40  20  44 W5        30.27S
CASPER         SUNNY     34  21  59 W14       30.29R WCI  25
BISMARCK       LGT SNOW  23  19  85 NW20G26   30.11R FOG     WCI   8
RAPID CITY     CLOUDY    39  28  64 NW17      30.16R WCI  30
PIERRE         CLOUDY    23  21  92 W8        30.09F WCI  14
SIOUX FALLS    CLOUDY    18  15  88 S13       30.16F WCI   5
OMAHA          CLOUDY    20  15  81 S9        30.34F WCI   9
GRAND ISLAND   CLOUDY    25  20  81 SW7       30.26F WCI  17
SCOTTSBLUFF    CLOUDY    34  27  75 NW13      30.26S WCI  25
KANSAS CITY    CLOUDY    23  19  85 S14       30.40F WCI  11
HILL CITY      SUNNY     40  31  70 W5        30.33S
WICHITA        MOSUNNY   35  15  44 SW13      30.39S WCI  26
DODGE CITY     SUNNY     43  31  62 NW9       30.35F
OKLAHOMA CITY  PTSUNNY   40  16  37 SW16      30.46S WCI  31
DALLAS         MOSUNNY   45  20  36 S10       30.53S
AMARILLO       SUNNY     41  23  48 N15       30.42R
$$




USA.gov is the U.S. government's official web portal to all federal, state and local government web resources and services.